Flag for U.S.A. Weather past 2 weeks in Key West, Florida, U.S.A.

Now
84 °F

Clear.


Feels Like: 92 °F
Forecast: 83 / 88 °F
Wind: 5 mph from Northeast

Location: Key West International Airport

Current Time: Aug 2, 2014 at 3:27:51 AM

Latest Report: Aug 2, 2014 at 2:53 AM


Visibility: 10 mi

Pressure: 29.93 "Hg

Humidity: 74%

Dew point: 75 °F

Location of Key WestLocation

Historic Weather in Key West — Graph

°F

Key West temperature yesterday

Maximum temperature yesterday: 90 °F (at 12:53 PM)
Minimum temperature yesterday: 85 °F (at 12:53 AM)
Average temperature yesterday: 87 °F

Past Weeks' High & Low Weather Summary

 TemperatureHumidityPressure
High92 °F (Jul 18, 2:53 PM)90% (Jul 31, 4:53 AM)30.13 "Hg (Jul 31, 4:53 AM)
Low78 °F (Jul 19, 11:53 PM)57% (Jul 27, 12:53 PM)29.92 "Hg (Aug 1, 5:53 PM)
Average86 °F69%30.03 "Hg
* Reported Jul 18 1:53 AM — Aug 2 1:53 AM, Key West, Weather by CustomWeather, © 2014

Note: Actual official high and low records may vary slightly from our data, if they occured in-between our weather recording intervals... More about our weather records

Advertising

Key West weather history for previous 24 hours

 ConditionsComfort  
Time TempWeatherWind HumidityBarometerVisibility
1:53 AM
Aug 2
83 °FPassing clouds.9 mph70%29.95 "Hg10 mi
12:53 AM86 °FPassing clouds.5 mph70%29.98 "Hg10 mi
12:00 AM87 °FThundershowers. Clear.6 mph65%29.98 "Hg10 mi
10:53 PM
Aug 1
86 °FClear.5 mph70%29.98 "Hg10 mi
9:53 PM86 °FPassing clouds.No wind72%29.96 "Hg10 mi
8:53 PM86 °FScattered clouds.5 mph70%29.96 "Hg10 mi
7:53 PM88 °FSunny.3 mph65%29.95 "Hg10 mi
6:53 PM90 °FSunny.6 mph61%29.93 "Hg10 mi
5:53 PM88 °FBroken clouds.7 mph63%29.92 "Hg10 mi
4:53 PM88 °FPassing clouds.No wind65%29.94 "Hg10 mi
3:53 PM88 °FOvercast.3 mph63%29.94 "Hg10 mi
2:53 PM89 °FSunny.3 mph63%29.96 "Hg10 mi
1:53 PM89 °FPartly sunny.5 mph63%29.98 "Hg10 mi
12:53 PM90 °FSunny.7 mph63%29.98 "Hg10 mi
11:53 AM89 °FPassing clouds.7 mph63%29.98 "Hg10 mi
10:53 AM89 °FSunny.8 mph63%29.98 "Hg10 mi
9:53 AM88 °FPassing clouds.8 mph63%29.98 "Hg10 mi
8:53 AM87 °FSunny.8 mph65%29.96 "Hg10 mi
7:53 AM86 °FPassing clouds.8 mph67%29.96 "Hg10 mi
6:53 AM85 °FPassing clouds.9 mph70%29.95 "Hg10 mi
5:53 AM85 °FClear.9 mph72%29.93 "Hg10 mi
4:53 AM85 °FPassing clouds.8 mph70%29.93 "Hg10 mi
3:53 AM85 °FClear.7 mph70%29.94 "Hg10 mi
Weather by CustomWeather, © 2014

See weather overviewHow to use our weather pages